Time,TemperatureF,DewpointF,PressureIn,WindDirection,WindDirectionDegrees,WindSpeedMPH,WindSpeedGustMPH,Humidity,HourlyPrecipIn,Conditions,Clouds,dailyrainin,SoftwareType,DateUTC
2013-04-01 00:02:00,33.0,22.0,30.15,North,-999,-999.0,-999.0,63,-99.99,,,-99.99,,2013-04-01 06:02:00,
2013-04-01 00:12:00,34.0,21.0,30.14,North,-999,-999.0,-999.0,59,-99.99,,,-99.99,,2013-04-01 06:12:00,
2013-04-01 00:22:00,34.0,21.0,30.14,North,-999,-999.0,-999.0,59,-99.99,,,-99.99,,2013-04-01 06:22:00,
2013-04-01 00:33:00,34.0,21.0,30.14,North,-999,-999.0,-999.0,59,-99.99,,,-99.99,,2013-04-01 06:33:00,
2013-04-01 00:43:00,34.0,21.0,30.14,North,-999,-999.0,-999.0,59,-99.99,,,-99.99,,2013-04-01 06:43:00,
2013-04-01 00:52:00,33.0,21.0,30.14,North,-999,-999.0,-999.0,62,-99.99,,,-99.99,,2013-04-01 06:52:00,
2013-04-01 01:02:00,33.0,21.0,30.14,North,-999,-999.0,-999.0,62,-99.99,,,-99.99,,2013-04-01 07:02:00,
2013-04-01 01:12:00,31.0,22.0,30.14,North,-999,-999.0,-999.0,68,-99.99,,,-99.99,,2013-04-01 07:12:00,
2013-04-01 01:22:00,31.0,22.0,30.14,North,-999,-999.0,-999.0,68,-99.99,,,-99.99,,2013-04-01 07:22:00,
2013-04-01 01:32:00,31.0,22.0,30.14,North,-999,-999.0,-999.0,68,-99.99,,,-99.99,,2013-04-01 07:32:00,
2013-04-01 01:42:00,31.0,22.0,30.14,North,-999,-999.0,-999.0,68,-99.99,,,-99.99,,2013-04-01 07:42:00,
2013-04-01 01:52:00,28.0,21.0,30.14,North,-999,-999.0,-999.0,74,-99.99,,,-99.99,,2013-04-01 07:52:00,
2013-04-01 02:03:00,28.0,21.0,30.14,North,-999,-999.0,-999.0,74,-99.99,,,-99.99,,2013-04-01 08:03:00,
2013-04-01 02:12:00,28.0,21.0,30.14,North,-999,-999.0,-999.0,74,-99.99,,,-99.99,,2013-04-01 08:12:00,
2013-04-01 02:22:00,27.0,21.0,30.13,North,-999,-999.0,-999.0,78,-99.99,,,-99.99,,2013-04-01 08:22:00,
2013-04-01 02:32:00,27.0,21.0,30.13,North,-999,-999.0,-999.0,78,-99.99,,,-99.99,,2013-04-01 08:32:00,
2013-04-01 02:43:00,28.0,21.0,30.12,North,-999,-999.0,-999.0,74,-99.99,,,-99.99,,2013-04-01 08:43:00,
2013-04-01 02:52:00,28.0,21.0,30.12,North,-999,-999.0,-999.0,74,-99.99,,,-99.99,,2013-04-01 08:52:00,
2013-04-01 03:02:00,28.0,21.0,30.12,North,-999,-999.0,-999.0,74,-99.99,,,-99.99,,2013-04-01 09:02:00,
2013-04-01 03:12:00,30.0,22.0,30.11,North,-999,-999.0,-999.0,72,-99.99,,,-99.99,,2013-04-01 09:12:00,
2013-04-01 03:22:00,30.0,22.0,30.11,North,-999,-999.0,-999.0,72,-99.99,,,-99.99,,2013-04-01 09:22:00,
2013-04-01 03:33:00,30.0,22.0,30.11,North,-999,-999.0,-999.0,72,-99.99,,,-99.99,,2013-04-01 09:33:00,
2013-04-01 03:42:00,29.0,22.0,30.10,North,-999,-999.0,-999.0,76,-99.99,,,-99.99,,2013-04-01 09:42:00,
2013-04-01 03:53:00,29.0,22.0,30.10,North,-999,-999.0,-999.0,76,-99.99,,,-99.99,,2013-04-01 09:53:00,
2013-04-01 04:03:00,29.0,22.0,30.10,North,-999,-999.0,-999.0,76,-99.99,,,-99.99,,2013-04-01 10:03:00,
2013-04-01 04:12:00,29.0,22.0,30.10,North,-999,-999.0,-999.0,76,-99.99,,,-99.99,,2013-04-01 10:12:00,
2013-04-01 04:23:00,28.0,22.0,30.09,North,-999,-999.0,-999.0,78,-99.99,,,-99.99,,2013-04-01 10:23:00,
2013-04-01 04:34:00,28.0,22.0,30.09,North,-999,-999.0,-999.0,78,-99.99,,,-99.99,,2013-04-01 10:34:00,
2013-04-01 04:43:00,28.0,22.0,30.09,North,-999,-999.0,-999.0,80,-99.99,,,-99.99,,2013-04-01 10:43:00,
2013-04-01 04:53:00,28.0,22.0,30.09,North,-999,-999.0,-999.0,80,-99.99,,,-99.99,,2013-04-01 10:53:00,
2013-04-01 05:03:00,28.0,22.0,30.09,North,-999,-999.0,-999.0,80,-99.99,,,-99.99,,2013-04-01 11:03:00,
2013-04-01 05:13:00,28.0,22.0,30.09,North,-999,-999.0,-999.0,80,-99.99,,,-99.99,,2013-04-01 11:13:00,
2013-04-01 05:23:00,27.0,23.0,30.08,North,-999,-999.0,-999.0,82,-99.99,,,-99.99,,2013-04-01 11:23:00,
2013-04-01 05:33:00,27.0,23.0,30.08,North,-999,-999.0,-999.0,82,-99.99,,,-99.99,,2013-04-01 11:33:00,
2013-04-01 05:42:00,27.0,23.0,30.08,North,-999,-999.0,-999.0,84,-99.99,,,-99.99,,2013-04-01 11:42:00,
2013-04-01 05:52:00,27.0,23.0,30.08,North,-999,-999.0,-999.0,84,-99.99,,,-99.99,,2013-04-01 11:52:00,
2013-04-01 06:02:00,27.0,23.0,30.08,North,-999,-999.0,-999.0,84,-99.99,,,-99.99,,2013-04-01 12:02:00,
2013-04-01 06:12:00,26.0,22.0,30.07,North,-999,-999.0,-999.0,86,-99.99,,,-99.99,,2013-04-01 12:12:00,
2013-04-01 06:22:00,26.0,22.0,30.07,North,-999,-999.0,-999.0,86,-99.99,,,-99.99,,2013-04-01 12:22:00,
2013-04-01 06:32:00,26.0,22.0,30.07,North,-999,-999.0,-999.0,86,-99.99,,,-99.99,,2013-04-01 12:32:00,
2013-04-01 06:42:00,26.0,22.0,30.07,North,-999,-999.0,-999.0,86,-99.99,,,-99.99,,2013-04-01 12:42:00,
2013-04-01 06:52:00,26.0,22.0,30.06,North,-999,-999.0,-999.0,87,-99.99,,,-99.99,,2013-04-01 12:52:00,
2013-04-01 07:03:00,26.0,22.0,30.06,North,-999,-999.0,-999.0,87,-99.99,,,-99.99,,2013-04-01 13:03:00,
2013-04-01 07:12:00,26.0,22.0,30.06,North,-999,-999.0,-999.0,87,-99.99,,,-99.99,,2013-04-01 13:12:00,
2013-04-01 07:22:00,25.0,22.0,30.06,North,-999,-999.0,-999.0,89,-99.99,,,-99.99,,2013-04-01 13:22:00,
2013-04-01 07:32:00,25.0,22.0,30.06,North,-999,-999.0,-999.0,89,-99.99,,,-99.99,,2013-04-01 13:32:00,
2013-04-01 07:42:00,25.0,23.0,30.08,North,-999,-999.0,-999.0,89,-99.99,,,-99.99,,2013-04-01 13:42:00,
2013-04-01 07:52:00,25.0,23.0,30.08,North,-999,-999.0,-999.0,89,-99.99,,,-99.99,,2013-04-01 13:52:00,
2013-04-01 08:04:00,25.0,23.0,30.08,North,-999,-999.0,-999.0,89,-99.99,,,-99.99,,2013-04-01 14:04:00,
2013-04-01 08:12:00,27.0,23.0,30.09,North,-999,-999.0,-999.0,87,-99.99,,,-99.99,,2013-04-01 14:12:00,
2013-04-01 08:22:00,27.0,23.0,30.09,North,-999,-999.0,-999.0,87,-99.99,,,-99.99,,2013-04-01 14:22:00,
2013-04-01 08:33:00,27.0,23.0,30.09,North,-999,-999.0,-999.0,87,-99.99,,,-99.99,,2013-04-01 14:33:00,
2013-04-01 08:43:00,27.0,23.0,30.09,North,-999,-999.0,-999.0,87,-99.99,,,-99.99,,2013-04-01 14:43:00,
2013-04-01 08:53:00,29.0,24.0,30.09,North,-999,-999.0,-999.0,83,-99.99,,,-99.99,,2013-04-01 14:53:00,
2013-04-01 09:02:00,29.0,24.0,30.09,North,-999,-999.0,-999.0,83,-99.99,,,-99.99,,2013-04-01 15:02:00,
2013-04-01 09:13:00,29.0,24.0,30.09,North,-999,-999.0,-999.0,83,-99.99,,,-99.99,,2013-04-01 15:13:00,
2013-04-01 09:22:00,32.0,25.0,30.09,North,-999,-999.0,-999.0,73,-99.99,,,-99.99,,2013-04-01 15:22:00,
2013-04-01 09:33:00,32.0,25.0,30.09,North,-999,-999.0,-999.0,73,-99.99,,,-99.99,,2013-04-01 15:33:00,
2013-04-01 09:43:00,36.0,25.0,30.09,North,-999,-999.0,-999.0,62,-99.99,,,-99.99,,2013-04-01 15:43:00,
2013-04-01 09:53:00,36.0,25.0,30.09,North,-999,-999.0,-999.0,62,-99.99,,,-99.99,,2013-04-01 15:53:00,
2013-04-01 10:03:00,36.0,25.0,30.09,North,-999,-999.0,-999.0,62,-99.99,,,-99.99,,2013-04-01 16:03:00,
2013-04-01 10:13:00,36.0,25.0,30.09,North,-999,-999.0,-999.0,62,-99.99,,,-99.99,,2013-04-01 16:13:00,
2013-04-01 10:23:00,39.0,23.0,30.09,North,-999,-999.0,-999.0,53,-99.99,,,-99.99,,2013-04-01 16:23:00,
2013-04-01 10:33:00,39.0,23.0,30.09,North,-999,-999.0,-999.0,53,-99.99,,,-99.99,,2013-04-01 16:33:00,
2013-04-01 10:42:00,39.0,23.0,30.09,North,-999,-999.0,-999.0,53,-99.99,,,-99.99,,2013-04-01 16:42:00,
2013-04-01 10:52:00,42.0,22.0,30.08,North,-999,-999.0,-999.0,46,-99.99,,,-99.99,,2013-04-01 16:52:00,
2013-04-01 11:03:00,42.0,22.0,30.08,North,-999,-999.0,-999.0,46,-99.99,,,-99.99,,2013-04-01 17:03:00,
2013-04-01 11:12:00,44.0,20.0,30.08,North,-999,-999.0,-999.0,39,-99.99,,,-99.99,,2013-04-01 17:12:00,
2013-04-01 11:22:00,44.0,20.0,30.08,North,-999,-999.0,-999.0,39,-99.99,,,-99.99,,2013-04-01 17:22:00,
2013-04-01 11:32:00,44.0,20.0,30.08,North,-999,-999.0,-999.0,39,-99.99,,,-99.99,,2013-04-01 17:32:00,
2013-04-01 11:42:00,44.0,21.0,30.08,North,-999,-999.0,-999.0,39,-99.99,,,-99.99,,2013-04-01 17:42:00,
2013-04-01 11:52:00,44.0,21.0,30.08,North,-999,-999.0,-999.0,39,-99.99,,,-99.99,,2013-04-01 17:52:00,
2013-04-01 12:02:00,44.0,21.0,30.08,North,-999,-999.0,-999.0,39,-99.99,,,-99.99,,2013-04-01 18:02:00,
2013-04-01 12:12:00,47.0,18.0,30.07,North,-999,-999.0,-999.0,31,-99.99,,,-99.99,,2013-04-01 18:12:00,
2013-04-01 12:22:00,47.0,18.0,30.07,North,-999,-999.0,-999.0,31,-99.99,,,-99.99,,2013-04-01 18:22:00,
2013-04-01 12:32:00,47.0,18.0,30.07,North,-999,-999.0,-999.0,31,-99.99,,,-99.99,,2013-04-01 18:32:00,
2013-04-01 12:42:00,50.0,19.0,30.05,North,-999,-999.0,-999.0,29,-99.99,,,-99.99,,2013-04-01 18:42:00,
2013-04-01 12:52:00,50.0,19.0,30.05,North,-999,-999.0,-999.0,29,-99.99,,,-99.99,,2013-04-01 18:52:00,
2013-04-01 13:03:00,50.0,19.0,30.05,North,-999,-999.0,-999.0,29,-99.99,,,-99.99,,2013-04-01 19:03:00,
2013-04-01 13:12:00,50.0,20.0,30.05,North,-999,-999.0,-999.0,29,-99.99,,,-99.99,,2013-04-01 19:12:00,
2013-04-01 13:23:00,50.0,20.0,30.05,North,-999,-999.0,-999.0,29,-99.99,,,-99.99,,2013-04-01 19:23:00,
2013-04-01 13:32:00,50.0,20.0,30.05,North,-999,-999.0,-999.0,29,-99.99,,,-99.99,,2013-04-01 19:32:00,
2013-04-01 13:42:00,50.0,20.0,30.05,North,-999,-999.0,-999.0,29,-99.99,,,-99.99,,2013-04-01 19:42:00,
2013-04-01 13:53:00,49.0,19.0,30.04,North,-999,-999.0,-999.0,29,-99.99,,,-99.99,,2013-04-01 19:53:00,
2013-04-01 14:02:00,49.0,19.0,30.04,North,-999,-999.0,-999.0,29,-99.99,,,-99.99,,2013-04-01 20:02:00,
2013-04-01 14:13:00,53.0,15.0,30.03,North,-999,-999.0,-999.0,22,-99.99,,,-99.99,,2013-04-01 20:13:00,
2013-04-01 14:22:00,53.0,15.0,30.03,North,-999,-999.0,-999.0,22,-99.99,,,-99.99,,2013-04-01 20:22:00,
2013-04-01 14:32:00,53.0,15.0,30.03,North,-999,-999.0,-999.0,22,-99.99,,,-99.99,,2013-04-01 20:32:00,
2013-04-01 14:42:00,53.0,15.0,30.03,North,-999,-999.0,-999.0,22,-99.99,,,-99.99,,2013-04-01 20:42:00,
2013-04-01 14:52:00,53.0,19.0,30.02,North,-999,-999.0,-999.0,26,-99.99,,,-99.99,,2013-04-01 20:52:00,
2013-04-01 15:02:00,53.0,19.0,30.02,North,-999,-999.0,-999.0,26,-99.99,,,-99.99,,2013-04-01 21:02:00,
2013-04-01 15:12:00,53.0,19.0,30.02,North,-999,-999.0,-999.0,26,-99.99,,,-99.99,,2013-04-01 21:12:00,
2013-04-01 15:22:00,49.0,21.0,30.02,North,-999,-999.0,-999.0,32,-99.99,,,-99.99,,2013-04-01 21:22:00,
2013-04-01 15:32:00,49.0,21.0,30.02,North,-999,-999.0,-999.0,32,-99.99,,,-99.99,,2013-04-01 21:32:00,
2013-04-01 15:43:00,49.0,21.0,30.02,North,-999,-999.0,-999.0,32,-99.99,,,-99.99,,2013-04-01 21:43:00,
2013-04-01 15:52:00,47.0,22.0,30.02,North,-999,-999.0,-999.0,37,-99.99,,,-99.99,,2013-04-01 21:52:00,
2013-04-01 16:02:00,47.0,22.0,30.02,North,-999,-999.0,-999.0,37,-99.99,,,-99.99,,2013-04-01 22:02:00,
2013-04-01 16:12:00,47.0,23.0,30.02,North,-999,-999.0,-999.0,38,-99.99,,,-99.99,,2013-04-01 22:12:00,
2013-04-01 16:22:00,47.0,23.0,30.02,North,-999,-999.0,-999.0,38,-99.99,,,-99.99,,2013-04-01 22:22:00,
2013-04-01 16:33:00,47.0,23.0,30.02,North,-999,-999.0,-999.0,38,-99.99,,,-99.99,,2013-04-01 22:33:00,
2013-04-01 16:43:00,47.0,23.0,30.02,North,-999,-999.0,-999.0,38,-99.99,,,-99.99,,2013-04-01 22:43:00,
2013-04-01 16:52:00,45.0,23.0,30.03,North,-999,-999.0,-999.0,41,-99.99,,,-99.99,,2013-04-01 22:52:00,
2013-04-01 17:02:00,45.0,23.0,30.03,North,-999,-999.0,-999.0,41,-99.99,,,-99.99,,2013-04-01 23:02:00,
2013-04-01 17:12:00,45.0,23.0,30.03,North,-999,-999.0,-999.0,41,-99.99,,,-99.99,,2013-04-01 23:12:00,
2013-04-01 17:22:00,45.0,22.0,30.02,North,-999,-999.0,-999.0,40,-99.99,,,-99.99,,2013-04-01 23:22:00,
2013-04-01 17:30:00,43.0,25.0,30.02,North,-999,-999.0,-999.0,48,-99.99,,,-99.99,,2013-04-01 23:30:00,
2013-04-01 17:32:00,45.0,22.0,30.02,North,-999,-999.0,-999.0,40,-99.99,,,-99.99,,2013-04-01 23:32:00,
2013-04-01 17:43:00,43.0,25.0,30.02,North,-999,-999.0,-999.0,48,-99.99,,,-99.99,,2013-04-01 23:43:00,
2013-04-01 17:52:00,43.0,25.0,30.02,North,-999,-999.0,-999.0,48,-99.99,,,-99.99,,2013-04-01 23:52:00,
2013-04-01 18:03:00,43.0,25.0,30.02,North,-999,-999.0,-999.0,48,-99.99,,,-99.99,,2013-04-02 00:03:00,
2013-04-01 18:12:00,43.0,25.0,30.02,North,-999,-999.0,-999.0,48,-99.99,,,-99.99,,2013-04-02 00:12:00,
2013-04-01 18:22:00,43.0,25.0,30.02,North,-999,-999.0,-999.0,48,-99.99,,,-99.99,,2013-04-02 00:22:00,
2013-04-01 18:43:00,38.0,27.0,30.05,North,-999,-999.0,-999.0,62,-99.99,,,-99.99,,2013-04-02 00:43:00,
2013-04-01 18:53:00,38.0,27.0,30.05,North,-999,-999.0,-999.0,62,-99.99,,,-99.99,,2013-04-02 00:53:00,
2013-04-01 19:02:00,38.0,27.0,30.05,North,-999,-999.0,-999.0,62,-99.99,,,-99.99,,2013-04-02 01:02:00,
2013-04-01 19:12:00,37.0,27.0,30.05,North,-999,-999.0,-999.0,67,-99.99,,,-99.99,,2013-04-02 01:12:00,
2013-04-01 19:22:00,37.0,27.0,30.05,North,-999,-999.0,-999.0,67,-99.99,,,-99.99,,2013-04-02 01:22:00,
2013-04-01 19:32:00,37.0,27.0,30.05,North,-999,-999.0,-999.0,67,-99.99,,,-99.99,,2013-04-02 01:32:00,
2013-04-01 19:43:00,36.0,27.0,30.06,North,-999,-999.0,-999.0,70,-99.99,,,-99.99,,2013-04-02 01:43:00,
2013-04-01 19:53:00,36.0,27.0,30.06,North,-999,-999.0,-999.0,70,-99.99,,,-99.99,,2013-04-02 01:53:00,
2013-04-01 20:02:00,36.0,27.0,30.06,North,-999,-999.0,-999.0,70,-99.99,,,-99.99,,2013-04-02 02:02:00,
2013-04-01 20:12:00,35.0,28.0,30.07,North,-999,-999.0,-999.0,74,-99.99,,,-99.99,,2013-04-02 02:12:00,
2013-04-01 20:22:00,35.0,28.0,30.07,North,-999,-999.0,-999.0,74,-99.99,,,-99.99,,2013-04-02 02:22:00,
2013-04-01 20:32:00,35.0,28.0,30.07,North,-999,-999.0,-999.0,74,-99.99,,,-99.99,,2013-04-02 02:32:00,
2013-04-01 20:42:00,35.0,28.0,30.09,North,-999,-999.0,-999.0,77,-99.99,,,-99.99,,2013-04-02 02:42:00,
2013-04-01 20:52:00,35.0,28.0,30.09,North,-999,-999.0,-999.0,77,-99.99,,,-99.99,,2013-04-02 02:52:00,
2013-04-01 21:02:00,35.0,28.0,30.09,North,-999,-999.0,-999.0,77,-99.99,,,-99.99,,2013-04-02 03:02:00,
2013-04-01 21:12:00,35.0,28.0,30.09,North,-999,-999.0,-999.0,77,-99.99,,,-99.99,,2013-04-02 03:12:00,
2013-04-01 21:22:00,35.0,28.0,30.09,North,-999,-999.0,-999.0,77,-99.99,,,-99.99,,2013-04-02 03:22:00,
2013-04-01 21:33:00,35.0,28.0,30.09,North,-999,-999.0,-999.0,77,-99.99,,,-99.99,,2013-04-02 03:33:00,
2013-04-01 21:43:00,34.0,28.0,30.10,North,-999,-999.0,-999.0,76,-99.99,,,-99.99,,2013-04-02 03:43:00,
2013-04-01 21:53:00,34.0,28.0,30.10,North,-999,-999.0,-999.0,76,-99.99,,,-99.99,,2013-04-02 03:53:00,
2013-04-01 22:03:00,34.0,28.0,30.10,North,-999,-999.0,-999.0,76,-99.99,,,-99.99,,2013-04-02 04:03:00,
2013-04-01 22:13:00,34.0,28.0,30.10,North,-999,-999.0,-999.0,76,-99.99,,,-99.99,,2013-04-02 04:13:00,
2013-04-01 22:22:00,33.0,26.0,30.10,North,-999,-999.0,-999.0,75,-99.99,,,-99.99,,2013-04-02 04:22:00,
2013-04-01 22:32:00,33.0,26.0,30.10,North,-999,-999.0,-999.0,75,-99.99,,,-99.99,,2013-04-02 04:32:00,
2013-04-01 22:43:00,32.0,25.0,30.10,North,-999,-999.0,-999.0,77,-99.99,,,-99.99,,2013-04-02 04:43:00,
2013-04-01 22:52:00,32.0,25.0,30.10,North,-999,-999.0,-999.0,77,-99.99,,,-99.99,,2013-04-02 04:52:00,
2013-04-01 23:02:00,32.0,25.0,30.10,North,-999,-999.0,-999.0,77,-99.99,,,-99.99,,2013-04-02 05:02:00,
2013-04-01 23:12:00,31.0,26.0,30.09,North,-999,-999.0,-999.0,79,-99.99,,,-99.99,,2013-04-02 05:12:00,
2013-04-01 23:22:00,31.0,26.0,30.09,North,-999,-999.0,-999.0,79,-99.99,,,-99.99,,2013-04-02 05:22:00,
2013-04-01 23:32:00,31.0,26.0,30.09,North,-999,-999.0,-999.0,79,-99.99,,,-99.99,,2013-04-02 05:32:00,
2013-04-01 23:42:00,31.0,26.0,30.08,North,-999,-999.0,-999.0,78,-99.99,,,-99.99,,2013-04-02 05:42:00,
2013-04-01 23:52:00,31.0,26.0,30.08,North,-999,-999.0,-999.0,78,-99.99,,,-99.99,,2013-04-02 05:52:00,